Regional Weather Roundup
Issued by NWS Little Rock, AR

Home | Current Version | Previous Version | Graphics & Text | Print | Product List | Glossary On
Versions: 1 2 3 4 5 6 7 8 9 10 11 12 13 14 15 16 17 18 19 20 21 22 23 24 25 26 27 28 29 30 31 32 33 34 35 36 37 38 39 40 41 42 43 44 45 46 47 48 49 50
000
ASUS44 KLZK 270705
RWRLZK

WEATHER ROUNDUP FOR ARKANSAS
NATIONAL WEATHER SERVICE LITTLE ROCK AR
200 AM CDT FRI MAR 27 2015

NOTE: "FAIR" INDICATES FEW OR NO CLOUDS BELOW 12,000 FEET WITH NO
SIGNIFICANT WEATHER AND/OR OBSTRUCTIONS TO VISIBILITY.

ARZ001-003-010-029-270800-
NORTHWEST ARKANSAS

CITY           SKY/WX    TMP DP  RH WIND       PRES   REMARKS
FAYETTEVILLE   CLOUDY    39  36  89 CALM      30.08R
FORT SMITH     PTCLDY    45  38  76 CALM      30.06R
HARRISON       CLOUDY    39  32  76 W5        30.07R
BENTONVILLE    CLOUDY    43  30  61 E5        30.07F
ROGERS         CLOUDY    41  33  73 NE3       30.08F
SILOAM SPGS    CLOUDY    41  34  75 CALM      30.09R
HIGHFILL       LGT RAIN  42  36  79 CALM      30.07F
$$

ARZ004-005-016-270800-
NORTH CENTRAL ARKANSAS

CITY           SKY/WX    TMP DP  RH WIND       PRES   REMARKS
BATESVILLE     CLEAR     37  32  81 NW6       30.05S
FLIPPIN        PTCLDY    39  28  65 NW5       30.08R
MTN HOME       PTCLDY    39  30  70 NW3       30.07R
$$

ARZ040-041-270800-
WEST CENTRAL ARKANSAS

CITY           SKY/WX    TMP DP  RH WIND       PRES   REMARKS
MENA           MOCLDY    43  36  75 W5        30.05F
MOUNT IDA      CLOUDY    41  37  86 CALM      30.01F
$$

ARZ009-017-025-026-028-270800-
NORTHEAST ARKANSAS

CITY           SKY/WX    TMP DP  RH WIND       PRES   REMARKS
CORNING          N/A     39  37  93 CALM      30.06R
JONESBORO      CLEAR     35  34  96 CALM      30.04F
NEWPORT        CLEAR     42  40  93 CALM      30.06S
BLYTHEVILLE    CLEAR     36  34  92 CALM      30.03F
$$

ARZ022-023-033-042-044-270800-
CENTRAL ARKANSAS

CITY           SKY/WX    TMP DP  RH WIND       PRES   REMARKS
LITTLE ROCK    CLEAR     42  35  76 CALM      30.06F
N LITTLE ROCK    N/A     44  34  67 W5        30.06F
SEARCY         CLEAR     35  34  96 CALM      30.07S
HOT SPRINGS    PTCLDY    39  37  92 CALM      30.06F
RUSSELLVILLE   MOCLDY    39  37  92 CALM      30.05F
CLINTON        FAIR      34  32  93 CALM      30.07F FOG
$$

ARZ036-270800-
EAST ARKANSAS

CITY           SKY/WX    TMP DP  RH WIND       PRES   REMARKS
WEST MEMPHIS   CLEAR     39  36  89 E3        30.03F
$$

ARZ050-053-066-070-073-270800-
SOUTHWEST ARKANSAS

CITY           SKY/WX    TMP DP  RH WIND       PRES   REMARKS
ARKADELPHIA    FAIR      41  41 100 CALM      30.07F
CAMDEN         MIX PCPN  41  39  93 CALM      30.08S VSB<1/4
TEXARKANA      CLEAR     45  35  68 CALM      30.08F
EL DORADO      CLEAR     39  38  96 CALM      30.08F
$$

ARZ056-057-069-270800-
SOUTHEAST ARKANSAS

CITY           SKY/WX    TMP DP  RH WIND       PRES   REMARKS
PINE BLUFF     FOG       40  39  97 CALM      30.06F VSB 3/4
STUTTGART      CLEAR     39  36  87 SW6       30.06S
MONTICELLO     CLEAR     40  38  93 CALM      30.05F

$$




USA.gov is the U.S. government's official web portal to all federal, state and local government web resources and services.